When you browse on this site, cookies collect data to enhance your experience and personalize the content and advertising you see.
Visit our Privacy Policy to learn more. By continuing to use the site, you agree to this use of cookies and data.
  • In Romania
  • List of Countries
  • For 7 days
  • Water Temperature
  • Satellite Maps
  • Weather Map
  • Weather Widgets
  • user-avatar
    Login

    Hourly Weather Gurevskie Vyselki

    Today, 19 July, Friday

    Time Temperature Precipitation Wind Pressure Humidity
    00:00 +12°C° 0 mm 3 mps 735 mmHg 91%
    01:00 +12°C° 0 mm 3 mps 735 mmHg 92%
    02:00 +12°C° 0 mm 3 mps 735 mmHg 93%
    03:00 +12°C° 0 mm 3 mps 735 mmHg 97%
    04:00 +12°C° 0.2 mm 4 mps 735 mmHg 96%
    05:00 +13°C° 0.2 mm 4 mps 735 mmHg 95%
    06:00 +13°C° 0.2 mm 5 mps 735 mmHg 94%
    07:00 +13°C° 0.4 mm 5 mps 735 mmHg 94%
    08:00 +13°C° 0.4 mm 6 mps 735 mmHg 94%
    09:00 +13°C° 0.4 mm 6 mps 735 mmHg 94%
    10:00 +14°C° 0.3 mm 6 mps 735 mmHg 92%
    11:00 +15°C° 0.3 mm 6 mps 736 mmHg 89%
    12:00 +16°C° 0.3 mm 7 mps 736 mmHg 86%
    13:00 +17°C° 0.3 mm 7 mps 736 mmHg 83%
    14:00 +18°C° 0.3 mm 7 mps 736 mmHg 80%
    15:00 +20°C° 0.3 mm 7 mps 736 mmHg 77%
    16:00 +20°C° 0.1 mm 6 mps 736 mmHg 78%
    17:00 +20°C° 0.1 mm 6 mps 737 mmHg 80%
    18:00 +19°C° 0.1 mm 5 mps 737 mmHg 81%
    19:00 +17°C° 0 mm 5 mps 737 mmHg 84%
    20:00 +16°C° 0 mm 5 mps 737 mmHg 87%
    21:00 +15°C° 0 mm 4 mps 737 mmHg 91%
    22:00 +14°C° 0 mm 5 mps 737 mmHg 89%
    23:00 +14°C° 0 mm 5 mps 738 mmHg 88%

    Tomorrow, 20 July, Saturday

    Time Temperature Precipitation Wind Pressure Humidity
    00:00 +14°C° 0 mm 5 mps 738 mmHg 87%
    01:00 +14°C° 0 mm 5 mps 738 mmHg 87%
    02:00 +13°C° 0 mm 6 mps 738 mmHg 88%
    03:00 +13°C° 0 mm 6 mps 738 mmHg 89%
    04:00 +13°C° 0 mm 6 mps 739 mmHg 88%
    05:00 +13°C° 0 mm 6 mps 739 mmHg 88%
    06:00 +14°C° 0 mm 6 mps 739 mmHg 87%
    07:00 +15°C° 0 mm 6 mps 739 mmHg 85%
    08:00 +15°C° 0 mm 6 mps 739 mmHg 84%
    09:00 +16°C° 0 mm 6 mps 740 mmHg 82%
    10:00 +17°C° 0 mm 6 mps 740 mmHg 80%
    11:00 +19°C° 0 mm 6 mps 740 mmHg 78%
    12:00 +19°C° 0 mm 6 mps 740 mmHg 77%
    13:00 +20°C° 0.6 mm 6 mps 740 mmHg 77%
    14:00 +20°C° 0.6 mm 6 mps 740 mmHg 77%
    15:00 +20°C° 0.6 mm 7 mps 740 mmHg 78%
    16:00 +20°C° 0.5 mm 6 mps 741 mmHg 79%
    17:00 +20°C° 0.5 mm 6 mps 741 mmHg 81%
    18:00 +20°C° 0.5 mm 5 mps 741 mmHg 83%
    19:00 +18°C° 0.1 mm 4 mps 741 mmHg 86%
    20:00 +17°C° 0.1 mm 4 mps 742 mmHg 89%
    21:00 +16°C° 0.1 mm 3 mps 742 mmHg 92%
    22:00 +16°C° 0 mm 3 mps 742 mmHg 92%
    23:00 +14°C° 0 mm 4 mps 742 mmHg 93%

    Day after tomorrow, 21 July, Sunday

    Time Temperature Precipitation Wind Pressure Humidity
    00:00 +14°C° 0 mm 4 mps 742 mmHg 94%
    01:00 +14°C° 0 mm 4 mps 742 mmHg 95%
    02:00 +14°C° 0 mm 4 mps 742 mmHg 95%
    03:00 +13°C° 0 mm 4 mps 742 mmHg 95%
    04:00 +14°C° 0 mm 4 mps 742 mmHg 95%
    05:00 +14°C° 0 mm 4 mps 743 mmHg 94%
    06:00 +14°C° 0 mm 4 mps 743 mmHg 94%
    07:00 +15°C° 0 mm 4 mps 743 mmHg 90%
    08:00 +17°C° 0 mm 5 mps 743 mmHg 87%
    09:00 +19°C° 0 mm 5 mps 743 mmHg 83%
    10:00 +20°C° 0.2 mm 5 mps 743 mmHg 81%
    11:00 +21°C° 0.2 mm 5 mps 743 mmHg 78%
    12:00 +22°C° 0.2 mm 5 mps 743 mmHg 76%
    13:00 +22°C° 0.5 mm 5 mps 743 mmHg 75%
    14:00 +22°C° 0.5 mm 5 mps 743 mmHg 74%
    15:00 +23°C° 0.5 mm 5 mps 742 mmHg 73%
    16:00 +22°C° 0.5 mm 5 mps 743 mmHg 75%
    17:00 +22°C° 0.5 mm 5 mps 743 mmHg 77%
    18:00 +22°C° 0.5 mm 4 mps 743 mmHg 78%
    19:00 +20°C° 0.1 mm 4 mps 743 mmHg 82%
    20:00 +19°C° 0.1 mm 3 mps 743 mmHg 86%
    21:00 +17°C° 0.1 mm 3 mps 743 mmHg 90%
    22:00 +17°C° 0 mm 2 mps 743 mmHg 91%
    23:00 +16°C° 0 mm 2 mps 743 mmHg 92%

    22 July, Monday

    Time Temperature Precipitation Wind Pressure Humidity
    00:00 +15°C° 0 mm 2 mps 743 mmHg 92%
    01:00 +15°C° 0 mm 2 mps 743 mmHg 93%
    02:00 +15°C° 0 mm 2 mps 743 mmHg 93%
    03:00 +14°C° 0 mm 2 mps 743 mmHg 94%
    04:00 +15°C° 0 mm 2 mps 743 mmHg 93%
    05:00 +15°C° 0 mm 2 mps 743 mmHg 93%
    06:00 +15°C° 0 mm 1 mps 743 mmHg 92%
    07:00 +18°C° 0 mm 1 mps 743 mmHg 86%
    08:00 +19°C° 0 mm 1 mps 743 mmHg 81%
    09:00 +21°C° 0 mm 1 mps 743 mmHg 75%
    10:00 +22°C° 0 mm 1 mps 742 mmHg 70%
    11:00 +23°C° 0 mm 1 mps 742 mmHg 65%
    12:00 +24°C° 0 mm 1 mps 742 mmHg 60%
    13:00 +24°C° 0 mm 1 mps 742 mmHg 59%
    14:00 +25°C° 0 mm 1 mps 742 mmHg 57%
    15:00 +25°C° 0 mm 1 mps 741 mmHg 55%
    16:00 +25°C° 0 mm 1 mps 741 mmHg 58%
    17:00 +25°C° 0 mm 1 mps 741 mmHg 60%
    18:00 +25°C° 0 mm 1 mps 741 mmHg 63%
    19:00 +23°C° 0 mm 1 mps 741 mmHg 67%
    20:00 +21°C° 0 mm 1 mps 741 mmHg 71%
    21:00 +19°C° 0 mm 1 mps 740 mmHg 76%
    22:00 +18°C° 0 mm 1 mps 740 mmHg 77%
    23:00 +18°C° 0 mm 1 mps 740 mmHg 79%

    23 July, Tuesday

    Time Temperature Precipitation Wind Pressure Humidity
    00:00 +16°C° 0 mm 1 mps 740 mmHg 81%
    01:00 +16°C° 0 mm 1 mps 740 mmHg 84%
    02:00 +15°C° 0 mm 2 mps 740 mmHg 86%
    03:00 +14°C° 0 mm 2 mps 740 mmHg 89%
    04:00 +15°C° 0 mm 2 mps 740 mmHg 89%
    05:00 +15°C° 0 mm 2 mps 740 mmHg 89%
    06:00 +15°C° 0 mm 2 mps 739 mmHg 89%
    07:00 +16°C° 0 mm 3 mps 739 mmHg 85%
    08:00 +18°C° 0 mm 3 mps 739 mmHg 80%
    09:00 +20°C° 0 mm 3 mps 739 mmHg 76%
    10:00 +20°C° 0 mm 3 mps 739 mmHg 73%
    11:00 +21°C° 0 mm 4 mps 739 mmHg 70%
    12:00 +22°C° 0 mm 4 mps 739 mmHg 67%
    13:00 +22°C° 0 mm 4 mps 739 mmHg 65%
    14:00 +24°C° 0 mm 3 mps 739 mmHg 63%
    15:00 +24°C° 0 mm 3 mps 739 mmHg 61%
    16:00 +24°C° 0 mm 3 mps 739 mmHg 64%
    17:00 +22°C° 0 mm 3 mps 739 mmHg 66%
    18:00 +22°C° 0 mm 3 mps 739 mmHg 69%
    19:00 +21°C° 0 mm 3 mps 739 mmHg 71%
    20:00 +19°C° 0 mm 2 mps 739 mmHg 72%
    21:00 +17°C° 0 mm 2 mps 739 mmHg 73%
    22:00 +16°C° 0 mm 2 mps 739 mmHg 75%
    23:00 +16°C° 0 mm 3 mps 739 mmHg 78%

    24 July, Wednesday

    Time Temperature Precipitation Wind Pressure Humidity
    00:00 +14°C° 0 mm 3 mps 739 mmHg 80%
    01:00 +13°C° 0 mm 3 mps 739 mmHg 81%
    02:00 +14°C° 0 mm 2 mps 739 mmHg 83%
    03:00 +13°C° 0 mm 2 mps 739 mmHg 85%
    04:00 +13°C° 0 mm 2 mps 739 mmHg 87%
    05:00 +13°C° 0 mm 3 mps 739 mmHg 88%
    06:00 +13°C° 0 mm 3 mps 739 mmHg 90%
    07:00 +16°C° 0 mm 3 mps 739 mmHg 86%
    08:00 +17°C° 0 mm 3 mps 739 mmHg 81%
    09:00 +19°C° 0 mm 4 mps 739 mmHg 77%
    10:00 +20°C° 0.1 mm 4 mps 739 mmHg 74%
    11:00 +21°C° 0.1 mm 4 mps 739 mmHg 71%
    12:00 +22°C° 0.1 mm 4 mps 739 mmHg 69%
    13:00 +22°C° 0.1 mm 4 mps 739 mmHg 69%
    14:00 +22°C° 0.1 mm 4 mps 739 mmHg 69%
    15:00 +22°C° 0.1 mm 4 mps 739 mmHg 69%
    16:00 +22°C° 0.1 mm 4 mps 739 mmHg 70%
    17:00 +22°C° 0.1 mm 4 mps 739 mmHg 72%
    18:00 +21°C° 0.1 mm 3 mps 739 mmHg 73%
    19:00 +20°C° 0 mm 3 mps 740 mmHg 73%
    20:00 +18°C° 0 mm 3 mps 740 mmHg 73%
    21:00 +17°C° 0 mm 3 mps 740 mmHg 74%
    22:00 +16°C° 0 mm 3 mps 740 mmHg 78%
    23:00 +14°C° 0 mm 3 mps 740 mmHg 83%
    Show more